Year,Month,Day,Hour,Minute,Value (Times are PST for temperature in C)
2007,06,21,00,00,14.70
2007,06,21,00,01,14.70
2007,06,21,00,02,14.70
2007,06,21,00,03,14.70
2007,06,21,00,04,14.70
2007,06,21,00,05,14.70
2007,06,21,00,06,14.70
2007,06,21,00,07,14.70
2007,06,21,00,08,14.70
2007,06,21,00,09,14.70
2007,06,21,00,10,14.70
2007,06,21,00,11,14.70
2007,06,21,00,12,14.70
2007,06,21,00,13,14.70
2007,06,21,00,14,14.70
2007,06,21,00,15,14.70
2007,06,21,00,16,14.60
2007,06,21,00,17,14.60
2007,06,21,00,18,14.60
2007,06,21,00,19,14.50
2007,06,21,00,20,14.50
2007,06,21,00,21,14.50
2007,06,21,00,22,14.40
2007,06,21,00,23,14.40
2007,06,21,00,24,14.40
2007,06,21,00,25,14.30
2007,06,21,00,26,14.30
2007,06,21,00,27,14.30
2007,06,21,00,28,14.20
2007,06,21,00,29,14.20
2007,06,21,00,30,14.20
2007,06,21,00,31,14.20
2007,06,21,00,32,14.20
2007,06,21,00,33,14.20
2007,06,21,00,34,14.20
2007,06,21,00,35,14.20
2007,06,21,00,36,14.20
2007,06,21,00,37,14.20
2007,06,21,00,38,14.20
2007,06,21,00,39,14.20
2007,06,21,00,40,14.20
2007,06,21,00,41,14.20
2007,06,21,00,42,14.20
2007,06,21,00,43,14.20
2007,06,21,00,44,14.20
2007,06,21,00,45,14.20
2007,06,21,00,46,14.10
2007,06,21,00,47,14.10
2007,06,21,00,48,14.10
2007,06,21,00,49,14.10
2007,06,21,00,50,14.10
2007,06,21,00,51,14.10
2007,06,21,00,52,14.10
2007,06,21,00,53,14.10
2007,06,21,00,54,14.10
2007,06,21,00,55,14.10
2007,06,21,00,56,14.10
2007,06,21,00,57,14.00
2007,06,21,00,58,14.00
2007,06,21,00,59,14.00
2007,06,21,01,00,14.00
2007,06,21,01,01,14.00
2007,06,21,01,02,14.00
2007,06,21,01,03,14.00
2007,06,21,01,04,14.10
2007,06,21,01,05,14.10
2007,06,21,01,06,14.10
2007,06,21,01,08,14.10
2007,06,21,01,09,14.10
2007,06,21,01,10,14.10
2007,06,21,01,11,14.10
2007,06,21,01,12,14.10
2007,06,21,01,13,14.10
2007,06,21,01,14,14.10
2007,06,21,01,15,14.10
2007,06,21,01,16,14.10
2007,06,21,01,17,14.10
2007,06,21,01,18,14.10
2007,06,21,01,19,14.10
2007,06,21,01,20,14.10
2007,06,21,01,21,14.10
2007,06,21,01,22,14.10
2007,06,21,01,23,14.10
2007,06,21,01,24,14.10
2007,06,21,01,25,14.10
2007,06,21,01,26,14.10
2007,06,21,01,27,14.10
2007,06,21,01,28,14.10
2007,06,21,01,29,14.10
2007,06,21,01,30,14.10
2007,06,21,01,31,14.10
2007,06,21,01,32,14.10
2007,06,21,01,33,14.10
2007,06,21,01,34,14.10
2007,06,21,01,35,14.10
2007,06,21,01,36,14.10
2007,06,21,01,37,14.10
2007,06,21,01,38,14.10
2007,06,21,01,39,14.10
2007,06,21,01,40,14.10
2007,06,21,01,41,14.10
2007,06,21,01,42,14.10
2007,06,21,01,43,14.10
2007,06,21,01,44,14.10
2007,06,21,01,45,14.10
2007,06,21,01,46,14.10
2007,06,21,01,47,14.10
2007,06,21,01,48,14.00
2007,06,21,01,49,14.00
2007,06,21,01,50,14.00
2007,06,21,01,51,14.00
2007,06,21,01,52,14.00
2007,06,21,01,53,13.90
2007,06,21,01,54,13.90
2007,06,21,01,55,13.90
2007,06,21,01,56,13.90
2007,06,21,01,57,13.80
2007,06,21,01,58,13.80
2007,06,21,01,59,13.80
2007,06,21,02,00,13.80
2007,06,21,02,01,13.80
2007,06,21,02,02,13.70
2007,06,21,02,03,13.70
2007,06,21,02,04,13.70
2007,06,21,02,05,13.70
2007,06,21,02,06,13.60
2007,06,21,02,07,13.60
2007,06,21,02,08,13.60
2007,06,21,02,09,13.50
2007,06,21,02,10,13.50
2007,06,21,02,11,13.40
2007,06,21,02,12,13.40
2007,06,21,02,13,13.40
2007,06,21,02,14,13.30
2007,06,21,02,15,13.30
2007,06,21,02,16,13.30
2007,06,21,02,17,13.30
2007,06,21,02,18,13.30
2007,06,21,02,19,13.30
2007,06,21,02,20,13.30
2007,06,21,02,21,13.20
2007,06,21,02,22,13.20
2007,06,21,02,23,13.20
2007,06,21,02,24,13.20
2007,06,21,02,25,13.10
2007,06,21,02,26,13.10
2007,06,21,02,27,13.10
2007,06,21,02,28,13.10
2007,06,21,02,29,13.10
2007,06,21,02,30,13.00
2007,06,21,02,31,13.00
2007,06,21,02,32,12.90
2007,06,21,02,33,12.90
2007,06,21,02,34,12.80
2007,06,21,02,35,12.80
2007,06,21,02,36,12.80
2007,06,21,02,37,12.80
2007,06,21,02,38,12.70
2007,06,21,02,39,12.70
2007,06,21,02,40,12.60
2007,06,21,02,41,12.60
2007,06,21,02,42,12.50
2007,06,21,02,43,12.40
2007,06,21,02,44,12.40
2007,06,21,02,45,12.40
2007,06,21,02,46,12.30
2007,06,21,02,47,12.30
2007,06,21,02,48,12.30
2007,06,21,02,49,12.30
2007,06,21,02,50,12.30
2007,06,21,02,51,12.20
2007,06,21,02,52,12.20
2007,06,21,02,53,12.20
2007,06,21,02,54,12.20
2007,06,21,02,55,12.20
2007,06,21,02,56,12.10
2007,06,21,02,57,12.10
2007,06,21,02,58,12.10
2007,06,21,02,59,12.10
2007,06,21,03,00,12.10
2007,06,21,03,01,12.10
2007,06,21,03,02,12.10
2007,06,21,03,03,12.10
2007,06,21,03,04,12.00
2007,06,21,03,05,12.00
2007,06,21,03,06,12.00
2007,06,21,03,08,12.00
2007,06,21,03,09,12.00
2007,06,21,03,10,12.00
2007,06,21,03,11,12.00
2007,06,21,03,12,12.00
2007,06,21,03,13,12.00
2007,06,21,03,14,12.00
2007,06,21,03,15,12.00
2007,06,21,03,16,12.00
2007,06,21,03,17,12.00
2007,06,21,03,18,12.00
2007,06,21,03,19,12.00
2007,06,21,03,20,12.00
2007,06,21,03,21,12.00
2007,06,21,03,22,12.00
2007,06,21,03,23,12.00
2007,06,21,03,24,11.90
2007,06,21,03,25,11.90
2007,06,21,03,26,11.90
2007,06,21,03,27,11.90
2007,06,21,03,28,11.90
2007,06,21,03,29,11.90
2007,06,21,03,30,11.90
2007,06,21,03,31,11.90
2007,06,21,03,32,11.90
2007,06,21,03,33,11.90
2007,06,21,03,34,11.90
2007,06,21,03,35,11.90
2007,06,21,03,36,11.90
2007,06,21,03,37,11.90
2007,06,21,03,38,11.90
2007,06,21,03,39,11.90
2007,06,21,03,40,11.90
2007,06,21,03,41,11.90
2007,06,21,03,42,11.90
2007,06,21,03,43,11.90
2007,06,21,03,44,11.90
2007,06,21,03,45,11.90
2007,06,21,03,46,11.90
2007,06,21,03,47,11.90
2007,06,21,03,48,11.90
2007,06,21,03,49,11.80
2007,06,21,03,50,11.80
2007,06,21,03,51,11.80
2007,06,21,03,52,11.80
2007,06,21,03,53,11.80
2007,06,21,03,54,11.80
2007,06,21,03,55,11.80
2007,06,21,03,56,11.80
2007,06,21,03,57,11.80
2007,06,21,03,58,11.80
2007,06,21,03,59,11.80
2007,06,21,04,00,11.80
2007,06,21,04,01,11.80
2007,06,21,04,02,11.80
2007,06,21,04,03,11.80
2007,06,21,04,04,11.80
2007,06,21,04,05,11.80
2007,06,21,04,06,11.80
2007,06,21,04,07,11.80
2007,06,21,04,08,11.80
2007,06,21,04,09,11.80
2007,06,21,04,10,11.80
2007,06,21,04,11,11.70
2007,06,21,04,12,11.70
2007,06,21,04,13,11.70
2007,06,21,04,14,11.70
2007,06,21,04,15,11.70
2007,06,21,04,16,11.70
2007,06,21,04,17,11.70
2007,06,21,04,18,11.70
2007,06,21,04,19,11.60
2007,06,21,04,20,11.60
2007,06,21,04,21,11.60
2007,06,21,04,22,11.60
2007,06,21,04,23,11.60
2007,06,21,04,24,11.60
2007,06,21,04,25,11.70
2007,06,21,04,26,11.70
2007,06,21,04,27,11.70
2007,06,21,04,28,11.70
2007,06,21,04,29,11.70
2007,06,21,04,30,11.70
2007,06,21,04,31,11.70
2007,06,21,04,32,11.70
2007,06,21,04,33,11.70
2007,06,21,04,34,11.70
2007,06,21,04,35,11.70
2007,06,21,04,36,11.80
2007,06,21,04,37,11.80
2007,06,21,04,38,11.80
2007,06,21,04,39,11.80
2007,06,21,04,40,11.80
2007,06,21,04,41,11.80
2007,06,21,04,42,11.80
2007,06,21,04,43,11.80
2007,06,21,04,44,11.80
2007,06,21,04,45,11.80
2007,06,21,04,46,11.80
2007,06,21,04,47,11.80
2007,06,21,04,48,11.80
2007,06,21,04,49,11.80
2007,06,21,04,50,11.80
2007,06,21,04,51,11.80
2007,06,21,04,52,11.80
2007,06,21,04,53,11.80
2007,06,21,04,54,11.80
2007,06,21,04,55,11.80
2007,06,21,04,56,11.80
2007,06,21,04,57,11.80
2007,06,21,04,58,11.70
2007,06,21,04,59,11.70
2007,06,21,05,00,11.70
2007,06,21,05,01,11.70
2007,06,21,05,02,11.70
2007,06,21,05,03,11.70
2007,06,21,05,04,11.70
2007,06,21,05,05,11.70
2007,06,21,05,06,11.80
2007,06,21,05,07,11.80
2007,06,21,05,08,11.80
2007,06,21,05,09,11.80
2007,06,21,05,10,11.80
2007,06,21,05,11,11.80
2007,06,21,05,12,11.80
2007,06,21,05,13,11.80
2007,06,21,05,14,11.80
2007,06,21,05,15,11.80
2007,06,21,05,16,11.80
2007,06,21,05,17,11.80
2007,06,21,05,18,11.80
2007,06,21,05,19,11.80
2007,06,21,05,20,11.80
2007,06,21,05,21,11.80
2007,06,21,05,22,11.80
2007,06,21,05,23,11.80
2007,06,21,05,24,11.80
2007,06,21,05,25,11.80
2007,06,21,05,26,11.80
2007,06,21,05,27,11.80
2007,06,21,05,28,11.80
2007,06,21,05,29,11.80
2007,06,21,05,30,11.80
2007,06,21,05,31,11.80
2007,06,21,05,32,11.80
2007,06,21,05,33,11.80
2007,06,21,05,34,11.80
2007,06,21,05,35,11.80
2007,06,21,05,36,11.80
2007,06,21,05,37,11.80
2007,06,21,05,38,11.80
2007,06,21,05,39,11.80
2007,06,21,05,40,11.80
2007,06,21,05,41,11.80
2007,06,21,05,42,11.80
2007,06,21,05,43,11.80
2007,06,21,05,44,11.80
2007,06,21,05,45,11.80
2007,06,21,05,46,11.80
2007,06,21,05,47,11.80
2007,06,21,05,48,11.80
2007,06,21,05,49,11.80
2007,06,21,05,50,11.80
2007,06,21,05,51,11.80
2007,06,21,05,52,11.80
2007,06,21,05,53,11.80
2007,06,21,05,54,11.80
2007,06,21,05,55,11.80
2007,06,21,05,56,11.80
2007,06,21,05,57,11.80
2007,06,21,05,58,11.80
2007,06,21,05,59,11.80
2007,06,21,06,00,11.80
2007,06,21,06,01,11.80
2007,06,21,06,02,11.80
2007,06,21,06,03,11.80
2007,06,21,06,04,11.80
2007,06,21,06,05,11.80
2007,06,21,06,06,11.90
2007,06,21,06,07,11.90
2007,06,21,06,08,11.90
2007,06,21,06,09,11.90
2007,06,21,06,10,11.90
2007,06,21,06,11,11.90
2007,06,21,06,12,11.90
2007,06,21,06,13,11.90
2007,06,21,06,14,11.90
2007,06,21,06,15,11.90
2007,06,21,06,16,11.90
2007,06,21,06,17,11.90
2007,06,21,06,18,11.90
2007,06,21,06,19,11.90
2007,06,21,06,20,12.00
2007,06,21,06,21,12.00
2007,06,21,06,22,12.00
2007,06,21,06,23,12.00
2007,06,21,06,24,12.00
2007,06,21,06,25,12.00
2007,06,21,06,26,12.00
2007,06,21,06,27,12.00
2007,06,21,06,28,12.00
2007,06,21,06,29,12.00
2007,06,21,06,30,12.00
2007,06,21,06,31,12.00
2007,06,21,06,32,12.00
2007,06,21,06,33,12.00
2007,06,21,06,34,12.00
2007,06,21,06,35,12.00
2007,06,21,06,36,12.00
2007,06,21,06,37,12.00
2007,06,21,06,38,11.90
2007,06,21,06,39,11.90
2007,06,21,06,40,11.90
2007,06,21,06,41,11.90
2007,06,21,06,42,11.90
2007,06,21,06,43,11.90
2007,06,21,06,44,11.90
2007,06,21,06,45,11.90
2007,06,21,06,46,11.90
2007,06,21,06,47,11.90
2007,06,21,06,48,11.90
2007,06,21,06,49,11.90
2007,06,21,06,50,12.00
2007,06,21,06,51,12.00
2007,06,21,06,52,12.00
2007,06,21,06,53,12.00
2007,06,21,06,54,12.10
2007,06,21,06,55,12.10
2007,06,21,06,56,12.10
2007,06,21,06,57,12.20
2007,06,21,06,58,12.20
2007,06,21,06,59,12.20
2007,06,21,07,00,12.20
2007,06,21,07,01,12.30
2007,06,21,07,02,12.30
2007,06,21,07,03,12.30
2007,06,21,07,04,12.30
2007,06,21,07,05,12.30
2007,06,21,07,06,12.30
2007,06,21,07,07,12.30
2007,06,21,07,08,12.30
2007,06,21,07,09,12.40
2007,06,21,07,10,12.40
2007,06,21,07,11,12.40
2007,06,21,07,12,12.40
2007,06,21,07,13,12.40
2007,06,21,07,14,12.40
2007,06,21,07,15,12.50
2007,06,21,07,16,12.50
2007,06,21,07,17,12.50
2007,06,21,07,18,12.60
2007,06,21,07,19,12.60
2007,06,21,07,20,12.60
2007,06,21,07,21,12.70
2007,06,21,07,22,12.70
2007,06,21,07,23,12.70
2007,06,21,07,24,12.80
2007,06,21,07,25,12.80
2007,06,21,07,26,12.80
2007,06,21,07,27,12.80
2007,06,21,07,28,12.80
2007,06,21,07,29,12.80
2007,06,21,07,30,12.80
2007,06,21,07,31,12.80
2007,06,21,07,32,12.80
2007,06,21,07,33,12.80
2007,06,21,07,34,12.90
2007,06,21,07,35,12.90
2007,06,21,07,36,12.90
2007,06,21,07,37,12.90
2007,06,21,07,38,12.90
2007,06,21,07,39,13.00
2007,06,21,07,40,13.00
2007,06,21,07,41,13.00
2007,06,21,07,42,13.00
2007,06,21,07,43,13.10
2007,06,21,07,44,13.10
2007,06,21,07,45,13.10
2007,06,21,07,46,13.10
2007,06,21,07,47,13.10
2007,06,21,07,48,13.20
2007,06,21,07,49,13.20
2007,06,21,07,50,13.20
2007,06,21,07,51,13.20
2007,06,21,07,52,13.30
2007,06,21,07,53,13.30
2007,06,21,07,54,13.30
2007,06,21,07,55,13.30
2007,06,21,07,56,13.30
2007,06,21,07,57,13.40
2007,06,21,07,58,13.40
2007,06,21,07,59,13.40
2007,06,21,08,00,13.50
2007,06,21,08,01,13.50
2007,06,21,08,02,13.50
2007,06,21,08,03,13.60
2007,06,21,08,04,13.60
2007,06,21,08,05,13.70
2007,06,21,08,06,13.70
2007,06,21,08,07,13.70
2007,06,21,08,08,13.80
2007,06,21,08,09,13.90
2007,06,21,08,10,14.00
2007,06,21,08,11,14.00
2007,06,21,08,12,14.10
2007,06,21,08,13,14.20
2007,06,21,08,14,14.20
2007,06,21,08,15,14.20
2007,06,21,08,16,14.30
2007,06,21,08,17,14.40
2007,06,21,08,18,14.40
2007,06,21,08,19,14.50
2007,06,21,08,20,14.50
2007,06,21,08,21,14.50
2007,06,21,08,22,14.60
2007,06,21,08,23,14.60
2007,06,21,08,24,14.70
2007,06,21,08,25,14.70
2007,06,21,08,26,14.70
2007,06,21,08,27,14.70
2007,06,21,08,28,14.70
2007,06,21,08,29,14.70
2007,06,21,08,30,14.70
2007,06,21,08,31,14.70
2007,06,21,08,32,14.70
2007,06,21,08,33,14.70
2007,06,21,08,34,14.70
2007,06,21,08,35,14.80
2007,06,21,08,36,14.80
2007,06,21,08,37,14.80
2007,06,21,08,38,14.90
2007,06,21,08,39,14.90
2007,06,21,08,40,15.00
2007,06,21,08,41,15.10
2007,06,21,08,42,15.10
2007,06,21,08,43,15.20
2007,06,21,08,44,15.20
2007,06,21,08,45,15.30
2007,06,21,08,46,15.30
2007,06,21,08,47,15.30
2007,06,21,08,48,15.30
2007,06,21,08,49,15.30
2007,06,21,08,50,15.30
2007,06,21,08,51,15.40
2007,06,21,08,52,15.40
2007,06,21,08,53,15.40
2007,06,21,08,54,15.40
2007,06,21,08,55,15.40
2007,06,21,08,56,15.50
2007,06,21,08,57,15.50
2007,06,21,08,58,15.50
2007,06,21,08,59,15.50
2007,06,21,09,00,15.50
2007,06,21,09,01,15.50
2007,06,21,09,02,15.60
2007,06,21,09,03,15.60
2007,06,21,09,04,15.60
2007,06,21,09,05,15.70
2007,06,21,09,06,15.70
2007,06,21,09,07,15.70
2007,06,21,09,08,15.80
2007,06,21,09,09,15.80
2007,06,21,09,10,15.80
2007,06,21,09,11,15.90
2007,06,21,09,12,16.10
2007,06,21,09,13,16.10
2007,06,21,09,14,16.20
2007,06,21,09,15,16.20
2007,06,21,09,16,16.30
2007,06,21,09,17,16.40
2007,06,21,09,18,16.40
2007,06,21,09,19,16.40
2007,06,21,09,20,16.40
2007,06,21,09,21,16.60
2007,06,21,09,22,16.60
2007,06,21,09,23,16.60
2007,06,21,09,24,16.70
2007,06,21,09,25,16.70
2007,06,21,09,26,16.70
2007,06,21,09,27,16.70
2007,06,21,09,28,16.70
2007,06,21,09,29,16.80
2007,06,21,09,30,16.70
2007,06,21,09,31,16.70
2007,06,21,09,32,16.70
2007,06,21,09,33,16.70
2007,06,21,09,34,16.70
2007,06,21,09,35,16.70
2007,06,21,09,36,16.70
2007,06,21,09,37,16.70
2007,06,21,09,38,16.70
2007,06,21,09,39,16.80
2007,06,21,09,40,16.80
2007,06,21,09,41,16.90
2007,06,21,09,42,17.00
2007,06,21,09,43,17.10
2007,06,21,09,44,17.20
2007,06,21,09,45,17.30
2007,06,21,09,46,17.30
2007,06,21,09,47,17.30
2007,06,21,09,48,17.30
2007,06,21,09,49,17.30
2007,06,21,09,50,17.20
2007,06,21,09,51,17.10
2007,06,21,09,52,17.10
2007,06,21,09,53,17.00
2007,06,21,09,54,17.00
2007,06,21,09,55,17.00
2007,06,21,09,56,16.90
2007,06,21,09,57,16.90
2007,06,21,09,58,16.90
2007,06,21,09,59,16.90
2007,06,21,10,00,17.00
2007,06,21,10,01,17.10
2007,06,21,10,02,17.10
2007,06,21,10,03,17.30
2007,06,21,10,04,17.30
2007,06,21,10,52,18.60
2007,06,21,10,55,18.50
2007,06,21,10,56,18.50
2007,06,21,10,57,18.50
2007,06,21,10,58,18.50
2007,06,21,10,59,18.50
2007,06,21,11,00,18.50
2007,06,21,11,01,18.50
2007,06,21,11,02,18.40
2007,06,21,11,03,18.40
2007,06,21,11,04,18.40
2007,06,21,11,05,18.30
2007,06,21,11,06,18.30
2007,06,21,11,07,18.30
2007,06,21,11,08,18.30
2007,06,21,11,09,18.30
2007,06,21,11,10,18.20
2007,06,21,11,11,18.20
2007,06,21,11,12,18.20
2007,06,21,11,13,18.20
2007,06,21,11,14,18.20
2007,06,21,11,15,18.20
2007,06,21,11,16,18.20
2007,06,21,11,17,18.20
2007,06,21,11,18,18.20
2007,06,21,11,19,18.20
2007,06,21,11,20,18.20
2007,06,21,11,21,18.20
2007,06,21,11,22,18.20
2007,06,21,11,23,18.20
2007,06,21,11,24,18.20
2007,06,21,11,25,18.20
2007,06,21,11,26,18.20
2007,06,21,11,27,18.20
2007,06,21,11,28,18.30
2007,06,21,11,29,18.30
2007,06,21,11,30,18.40
2007,06,21,11,31,18.40
2007,06,21,11,32,18.50
2007,06,21,11,33,18.50
2007,06,21,11,34,18.50
2007,06,21,11,35,18.60
2007,06,21,11,36,18.60
2007,06,21,11,37,18.60
2007,06,21,11,38,18.50
2007,06,21,11,39,18.50
2007,06,21,11,40,18.50
2007,06,21,11,41,18.50
2007,06,21,11,42,18.40
2007,06,21,11,43,18.40
2007,06,21,11,44,18.40
2007,06,21,11,45,18.40
2007,06,21,11,46,18.40
2007,06,21,11,47,18.40
2007,06,21,11,48,18.40
2007,06,21,11,49,18.40
2007,06,21,11,50,18.30
2007,06,21,11,51,18.30
2007,06,21,11,52,18.30
2007,06,21,11,53,18.30
2007,06,21,11,54,18.20
2007,06,21,11,55,18.20
2007,06,21,11,56,18.20
2007,06,21,11,57,18.20
2007,06,21,11,58,18.20
2007,06,21,11,59,18.10
2007,06,21,12,00,18.10
2007,06,21,12,01,18.10
2007,06,21,12,02,18.10
2007,06,21,12,03,18.10
2007,06,21,12,04,18.10
2007,06,21,12,05,18.10
2007,06,21,12,06,18.10
2007,06,21,12,07,18.20
2007,06,21,12,08,18.20
2007,06,21,12,09,18.20
2007,06,21,12,10,18.30
2007,06,21,12,11,18.50
2007,06,21,12,12,18.60
2007,06,21,12,13,18.70
2007,06,21,12,14,18.80
2007,06,21,12,15,18.90
2007,06,21,12,16,18.90
2007,06,21,12,17,19.10
2007,06,21,12,18,19.10
2007,06,21,12,19,19.20
2007,06,21,12,20,19.40
2007,06,21,12,21,19.50
2007,06,21,12,22,19.60
2007,06,21,12,23,19.80
2007,06,21,12,24,19.80
2007,06,21,12,25,19.90
2007,06,21,12,26,19.90
2007,06,21,12,27,19.90
2007,06,21,12,28,19.90
2007,06,21,12,29,19.90
2007,06,21,12,30,19.80
2007,06,21,12,31,19.70
2007,06,21,12,32,19.70
2007,06,21,12,33,19.70
2007,06,21,12,34,19.70
2007,06,21,12,35,19.70
2007,06,21,12,36,19.80
2007,06,21,12,37,19.80
2007,06,21,12,38,19.80
2007,06,21,12,39,19.80
2007,06,21,12,40,19.90
2007,06,21,12,41,19.90
2007,06,21,12,42,19.90
2007,06,21,12,43,19.90
2007,06,21,12,44,19.90
2007,06,21,12,45,19.90
2007,06,21,12,46,19.90
2007,06,21,12,47,19.90
2007,06,21,12,48,19.90
2007,06,21,12,49,19.90
2007,06,21,12,50,19.80
2007,06,21,12,51,19.70
2007,06,21,12,52,19.70
2007,06,21,12,53,19.60
2007,06,21,12,54,19.60
2007,06,21,12,55,19.50
2007,06,21,12,56,19.50
2007,06,21,12,57,19.40
2007,06,21,12,58,19.40
2007,06,21,12,59,19.30
2007,06,21,13,00,19.30
2007,06,21,13,01,19.30
2007,06,21,13,02,19.30
2007,06,21,13,03,19.30
2007,06,21,13,04,19.30
2007,06,21,13,05,19.30
2007,06,21,13,06,19.30
2007,06,21,13,07,19.30
2007,06,21,13,08,19.30
2007,06,21,13,09,19.30
2007,06,21,13,10,19.30
2007,06,21,13,11,19.30
2007,06,21,13,12,19.30
2007,06,21,13,13,19.40
2007,06,21,13,14,19.50
2007,06,21,13,15,19.50
2007,06,21,13,16,19.60
2007,06,21,13,17,19.70
2007,06,21,13,18,19.80
2007,06,21,13,19,19.80
2007,06,21,13,20,19.80
2007,06,21,13,21,19.90
2007,06,21,13,22,19.90
2007,06,21,13,23,19.90
2007,06,21,13,24,19.90
2007,06,21,13,25,19.90
2007,06,21,13,26,19.90
2007,06,21,13,27,19.90
2007,06,21,13,28,19.90
2007,06,21,13,29,19.80
2007,06,21,13,30,19.80
2007,06,21,13,31,19.80
2007,06,21,13,32,19.70
2007,06,21,13,33,19.70
2007,06,21,13,34,19.70
2007,06,21,13,35,19.70
2007,06,21,13,36,19.70
2007,06,21,13,37,19.60
2007,06,21,13,38,19.60
2007,06,21,13,39,19.60
2007,06,21,13,40,19.60
2007,06,21,13,41,19.60
2007,06,21,13,42,19.60
2007,06,21,13,43,19.60
2007,06,21,13,44,19.60
2007,06,21,13,45,19.70
2007,06,21,13,46,19.70
2007,06,21,13,47,19.80
2007,06,21,13,48,19.80
2007,06,21,13,49,19.80
2007,06,21,13,50,19.90
2007,06,21,13,51,19.90
2007,06,21,13,52,19.90
2007,06,21,13,53,20.10
2007,06,21,13,54,20.10
2007,06,21,13,55,20.20
2007,06,21,13,56,20.20
2007,06,21,13,57,20.20
2007,06,21,13,58,20.20
2007,06,21,13,59,20.20
2007,06,21,14,00,20.20
2007,06,21,14,01,20.20
2007,06,21,14,02,20.20
2007,06,21,14,03,20.20
2007,06,21,14,04,20.20
2007,06,21,14,05,20.20
2007,06,21,14,06,20.20
2007,06,21,14,07,20.20
2007,06,21,14,08,20.20
2007,06,21,14,09,20.20
2007,06,21,14,10,20.30
2007,06,21,14,11,20.40
2007,06,21,14,12,20.40
2007,06,21,14,13,20.50
2007,06,21,14,14,20.60
2007,06,21,14,15,20.80
2007,06,21,14,16,20.80
2007,06,21,14,17,20.90
2007,06,21,14,18,21.10
2007,06,21,14,19,21.20
2007,06,21,14,20,21.30
2007,06,21,14,21,21.30
2007,06,21,14,22,21.30
2007,06,21,14,23,21.30
2007,06,21,14,24,21.30
2007,06,21,14,25,21.30
2007,06,21,14,26,21.40
2007,06,21,14,27,21.40
2007,06,21,14,28,21.60
2007,06,21,14,29,21.60
2007,06,21,14,30,21.60
2007,06,21,14,31,21.40
2007,06,21,14,32,21.40
2007,06,21,14,33,21.30
2007,06,21,14,34,21.30
2007,06,21,14,35,21.30
2007,06,21,14,36,21.30
2007,06,21,14,37,21.40
2007,06,21,14,38,21.40
2007,06,21,14,39,21.40
2007,06,21,14,40,21.40
2007,06,21,14,41,21.40
2007,06,21,14,42,21.40
2007,06,21,14,43,21.40
2007,06,21,14,44,21.40
2007,06,21,14,45,21.30
2007,06,21,14,46,21.30
2007,06,21,14,47,21.30
2007,06,21,14,48,21.30
2007,06,21,14,49,21.30
2007,06,21,14,50,21.40
2007,06,21,14,51,21.40
2007,06,21,14,52,21.60
2007,06,21,14,53,21.60
2007,06,21,14,54,21.70
2007,06,21,14,55,21.70
2007,06,21,14,56,21.80
2007,06,21,14,57,21.90
2007,06,21,14,58,21.90
2007,06,21,14,59,21.90
2007,06,21,15,00,21.90
2007,06,21,15,01,21.80
2007,06,21,15,02,21.70
2007,06,21,15,03,21.60
2007,06,21,15,04,21.20
2007,06,21,15,05,20.90
2007,06,21,15,06,20.70
2007,06,21,15,07,20.50
2007,06,21,15,08,20.20
2007,06,21,15,09,20.20
2007,06,21,15,10,19.90
2007,06,21,15,11,19.90
2007,06,21,15,12,19.80
2007,06,21,15,13,19.70
2007,06,21,15,14,19.40
2007,06,21,15,15,19.10
2007,06,21,15,16,18.90
2007,06,21,15,17,18.70
2007,06,21,15,18,18.60
2007,06,21,15,19,18.60
2007,06,21,15,20,18.60
2007,06,21,15,21,18.50
2007,06,21,15,22,18.40
2007,06,21,15,23,18.40
2007,06,21,15,24,18.40
2007,06,21,15,25,18.40
2007,06,21,15,26,18.50
2007,06,21,15,27,18.60
2007,06,21,15,28,18.70
2007,06,21,15,29,18.70
2007,06,21,15,30,18.60
2007,06,21,15,31,18.60
2007,06,21,15,32,18.70
2007,06,21,15,33,18.80
2007,06,21,15,34,18.90
2007,06,21,15,35,18.90
2007,06,21,15,36,18.90
2007,06,21,15,37,18.90
2007,06,21,15,38,18.90
2007,06,21,15,39,18.90
2007,06,21,15,40,18.90
2007,06,21,15,41,18.90
2007,06,21,15,42,18.80
2007,06,21,15,43,18.80
2007,06,21,15,44,18.90
2007,06,21,15,45,18.90
2007,06,21,15,46,18.90
2007,06,21,15,47,18.90
2007,06,21,15,48,18.90
2007,06,21,15,49,18.90
2007,06,21,15,50,19.10
2007,06,21,15,51,18.90
2007,06,21,15,52,18.90
2007,06,21,15,53,18.90
2007,06,21,15,54,18.80
2007,06,21,15,55,18.80
2007,06,21,15,56,18.70
2007,06,21,15,57,18.60
2007,06,21,15,58,18.50
2007,06,21,15,59,18.50
2007,06,21,16,00,18.50
2007,06,21,16,01,18.50
2007,06,21,16,02,18.50
2007,06,21,16,03,18.50
2007,06,21,16,04,18.50
2007,06,21,16,05,18.40
2007,06,21,16,06,18.40
2007,06,21,16,07,18.30
2007,06,21,16,08,18.20
2007,06,21,16,09,18.20
2007,06,21,16,10,18.20
2007,06,21,16,11,18.20
2007,06,21,16,12,18.20
2007,06,21,16,13,18.10
2007,06,21,16,14,18.10
2007,06,21,16,15,18.10
2007,06,21,16,16,18.10
2007,06,21,16,17,18.10
2007,06,21,16,18,18.20
2007,06,21,16,19,18.20
2007,06,21,16,20,18.20
2007,06,21,16,21,18.20
2007,06,21,16,22,18.20
2007,06,21,16,23,18.20
2007,06,21,16,24,18.20
2007,06,21,16,25,18.20
2007,06,21,16,26,18.20
2007,06,21,16,28,18.50
2007,06,21,16,29,18.60
2007,06,21,16,30,18.70
2007,06,21,16,31,18.70
2007,06,21,16,32,18.70
2007,06,21,16,33,18.70
2007,06,21,16,34,18.80
2007,06,21,16,35,18.90
2007,06,21,16,36,18.90
2007,06,21,16,37,18.90
2007,06,21,16,38,18.90
2007,06,21,16,39,18.90
2007,06,21,16,40,18.90
2007,06,21,16,41,18.90
2007,06,21,16,42,18.80
2007,06,21,16,43,18.70
2007,06,21,16,44,18.60
2007,06,21,16,45,18.60
2007,06,21,16,46,18.60
2007,06,21,16,47,18.70
2007,06,21,16,48,18.80
2007,06,21,16,49,18.90
2007,06,21,16,50,19.10
2007,06,21,16,51,19.20
2007,06,21,16,52,19.40
2007,06,21,16,53,19.60
2007,06,21,16,54,19.70
2007,06,21,16,55,19.80
2007,06,21,16,56,19.80
2007,06,21,16,57,19.80
2007,06,21,16,58,19.80
2007,06,21,16,59,19.80
2007,06,21,17,00,19.90
2007,06,21,17,01,20.10
2007,06,21,17,02,20.20
2007,06,21,17,03,20.30
2007,06,21,17,04,20.40
2007,06,21,17,05,20.60
2007,06,21,17,06,20.70
2007,06,21,17,07,20.80
2007,06,21,17,08,21.00
2007,06,21,17,09,21.10
2007,06,21,17,10,21.30
2007,06,21,17,11,21.30
2007,06,21,17,12,21.60
2007,06,21,17,13,21.60
2007,06,21,17,14,21.80
2007,06,21,17,15,22.00
2007,06,21,17,16,22.20
2007,06,21,17,17,22.30
2007,06,21,17,18,22.50
2007,06,21,17,19,22.70
2007,06,21,17,20,22.90
2007,06,21,17,21,22.90
2007,06,21,17,22,22.90
2007,06,21,17,23,23.10
2007,06,21,17,24,23.20
2007,06,21,17,25,23.30
2007,06,21,17,26,23.30
2007,06,21,17,27,23.30
2007,06,21,17,28,23.30
2007,06,21,17,29,22.90
2007,06,21,17,30,22.30
2007,06,21,17,31,21.80
2007,06,21,17,32,21.60
2007,06,21,17,33,21.30
2007,06,21,17,34,21.10
2007,06,21,17,35,20.70
2007,06,21,17,36,20.50
2007,06,21,17,37,20.20
2007,06,21,17,38,20.10
2007,06,21,17,39,19.90
2007,06,21,17,40,19.90
2007,06,21,17,41,19.90
2007,06,21,17,42,19.90
2007,06,21,17,43,19.90
2007,06,21,17,44,19.90
2007,06,21,17,45,19.90
2007,06,21,17,46,20.10
2007,06,21,17,47,20.10
2007,06,21,17,48,20.10
2007,06,21,17,49,20.20
2007,06,21,17,50,20.10
2007,06,21,17,51,20.10
2007,06,21,17,52,20.10
2007,06,21,17,53,20.20
2007,06,21,17,54,20.20
2007,06,21,17,55,20.30
2007,06,21,17,56,20.50
2007,06,21,17,57,20.60
2007,06,21,17,58,20.70
2007,06,21,17,59,20.90
2007,06,21,18,00,21.00
2007,06,21,18,01,21.20
2007,06,21,18,02,21.30
2007,06,21,18,03,21.60
2007,06,21,18,04,21.60
2007,06,21,18,05,21.80
2007,06,21,18,06,21.90
2007,06,21,18,07,21.90
2007,06,21,18,08,22.00
2007,06,21,18,09,22.00
2007,06,21,18,10,22.10
2007,06,21,18,11,22.20